FW7399 Weather Reports


time (UTC)temp
C
wind
direction
speed
KPH
gust
KPH
rain 1hr
cm
rain 24hr
cm
rain mn
cm
humidity
%
barometer
mb
20260504214903 14 304 40.2 56.3 0.00 0.00 0.00 37 1004.2
20260504214403 15 298 41.8 53.1 0.00 0.00 0.00 40 1004.2
20260504213403 15 317 37.0 53.1 0.00 0.00 0.00 41 1004.2
20260504212903 15 294 41.8 56.3 0.00 0.00 0.00 40 1003.8
20260504212403 16 301 37.0 49.9 0.00 0.00 0.00 39 1003.6
20260504211903 16 299 33.8 45.1 0.00 0.00 0.00 38 1003.5
20260504211403 15 315 41.8 53.1 0.00 0.00 0.00 38 1003.6
20260504210903 15 309 41.8 51.5 0.00 0.00 0.00 37 1003.6
20260504210403 16 308 37.0 56.3 0.00 0.00 0.00 37 1003.5
20260504205403 16 308 41.8 53.1 0.00 0.00 0.00 36 1003.4
20260504204903 16 301 38.6 49.9 0.00 0.00 0.00 36 1003.2
20260504204403 16 318 37.0 46.7 0.00 0.00 0.00 35 1003.3
20260504203903 16 315 32.2 46.7 0.00 0.00 0.00 35 1003.2
20260504203403 16 321 33.8 45.1 0.00 0.00 0.00 34 1003.3
20260504202403 17 318 40.2 56.3 0.00 0.00 0.00 33 1003.2
20260504201904 17 308 38.6 48.3 0.00 0.00 0.00 32 1003.4
20260504201404 17 331 40.2 53.1 0.00 0.00 0.00 31 1003.3
20260504200903 17 311 41.8 56.3 0.00 0.00 0.00 33 1003.2
20260504200403 18 305 40.2 51.5 0.00 0.00 0.00 33 1003.0
20260504195903 18 319 40.2 49.9 0.00 0.00 0.00 34 1003.0
20260504195403 18 308 38.6 49.9 0.00 0.00 0.00 34 1002.8
20260504194904 18 331 38.6 51.5 0.00 0.00 0.00 36 1002.9
20260504194403 18 321 32.2 49.9 0.00 0.00 0.00 35 1002.9
20260504193904 18 312 40.2 51.5 0.00 0.00 0.00 36 1003.1
20260504193403 18 293 35.4 48.3 0.00 0.00 0.00 35 1002.9
20260504192903 18 309 37.0 49.9 0.00 0.00 0.00 35 1002.8
20260504192403 18 313 40.2 53.1 0.00 0.00 0.00 35 1002.8
20260504191903 18 327 38.6 49.9 0.00 0.00 0.00 35 1002.8
20260504191403 18 336 29.0 49.9 0.00 0.00 0.00 35 1003.0
20260504190904 18 299 37.0 48.3 0.00 0.00 0.00 34 1002.8
20260504190403 18 332 37.0 46.7 0.00 0.00 0.00 34 1002.9
20260504185403 18 337 40.2 56.3 0.00 0.00 0.00 34 1002.9
20260504183903 19 297 32.2 46.7 0.00 0.00 0.00 34 1002.7
20260504183403 18 318 29.0 41.8 0.00 0.00 0.00 35 1002.7
20260504182904 18 321 33.8 45.1 0.00 0.00 0.00 34 1002.8
20260504182403 18 311 33.8 45.1 0.00 0.00 0.00 35 1002.7
20260504181903 18 314 25.7 40.2 0.00 0.00 0.00 36 1002.6
20260504181403 18 321 33.8 48.3 0.00 0.00 0.00 36 1002.6
20260504180903 18 300 33.8 41.8 0.00 0.00 0.00 37 1002.3
20260504180403 18 322 33.8 46.7 0.00 0.00 0.00 37 1002.4
20260504175904 18 316 32.2 46.7 0.00 0.00 0.00 37 1002.2
20260504175404 18 314 29.0 41.8 0.00 0.00 0.00 38 1002.1
20260504174903 18 315 38.6 53.1 0.00 0.00 0.00 37 1002.2
20260504174403 18 343 30.6 41.8 0.00 0.00 0.00 37 1002.0
20260504173904 18 323 27.4 40.2 0.00 0.00 0.00 37 1002.0
20260504172903 18 310 24.1 40.2 0.00 0.00 0.00 38 1002.0
20260504171903 18 348 29.0 40.2 0.00 0.00 0.00 38 1002.1
20260504170403 17 321 25.7 38.6 0.00 0.00 0.00 39 1002.0
20260504160403 17 338 27.4 33.8 0.00 0.00 0.00 42 1001.3
20260504140903 17 299 29.0 41.8 0.00 0.00 0.00 52 1000.3
20260504140403 17 293 32.2 40.2 0.00 0.00 0.00 51 1000.3
20260504130403 15 239 22.5 32.2 0.00 0.00 0.00 57 999.5
20260504110403 11 223 16.1 27.4 0.00 0.00 0.00 62 1000.1
20260504100403 11 210 16.1 24.1 0.00 0.00 0.00 60 1000.6
20260504081904 12 209 19.3 29.0 0.00 0.00 0.00 57 1001.5
20260504081403 11 204 16.1 24.1 0.00 0.00 0.00 57 1001.5
20260504080903 11 206 17.7 29.0 0.00 0.00 0.00 57 1001.8
20260504080403 11 210 19.3 25.7 0.00 0.00 0.00 58 1001.9
20260504050403 14 207 12.9 19.3 0.00 0.00 0.00 48 1004.2
20260504045903 14 205 12.9 19.3 0.00 0.00 0.00 48 1004.2
20260504045404 14 205 12.9 19.3 0.00 0.00 0.00 48 1004.3
20260504044903 13 206 12.9 16.1 0.00 0.00 0.00 49 1004.4
20260504044403 14 200 11.3 16.1 0.00 0.00 0.00 48 1004.4
20260504043903 14 205 12.9 19.3 0.00 0.00 0.00 48 1004.5
20260504043404 15 201 11.3 16.1 0.00 0.00 0.00 47 1004.5
20260504042404 15 205 11.3 16.1 0.00 0.00 0.00 45 1004.7
20260504041403 15 206 12.9 19.3 0.00 0.00 0.00 45 1004.8
20260504040904 16 207 12.9 19.3 0.00 0.00 0.00 44 1004.9
20260504040403 16 209 12.9 19.3 0.00 0.00 0.00 43 1005.1
20260504035903 16 212 12.9 19.3 0.00 0.00 0.00 44 1005.2
20260504035403 15 214 9.7 14.5 0.00 0.00 0.00 45 1005.3
20260504034903 15 219 9.7 14.5 0.00 0.00 0.00 46 1005.4
20260504034404 15 231 9.7 11.3 0.00 0.00 0.00 46 1005.6
20260504033403 16 224 8.0 14.5 0.00 0.00 0.00 43 1005.7
20260504032903 15 221 9.7 16.1 0.00 0.00 0.00 44 1005.8
20260504032404 15 211 9.7 14.5 0.00 0.00 0.00 45 1005.8
20260504031903 14 215 9.7 16.1 0.00 0.00 0.00 46 1006.0
20260504031404 13 213 9.7 16.1 0.00 0.00 0.00 50 1006.0
20260504030903 12 236 9.7 12.9 0.00 0.00 0.00 52 1006.2
20260504030403 12 238 9.7 9.7 0.00 0.00 0.00 51 1006.2
20260504025903 12 238 9.7 12.9 0.00 0.00 0.00 51 1006.2
20260504025403 12 234 8.0 11.3 0.00 0.00 0.00 51 1006.2
20260504024903 12 229 9.7 11.3 0.00 0.00 0.00 52 1006.2
20260504024403 12 242 8.0 9.7 0.00 0.00 0.00 51 1006.2
20260504023904 12 242 9.7 9.7 0.00 0.00 0.00 51 1006.2
20260504023403 12 242 8.0 9.7 0.00 0.00 0.00 50 1006.2
20260504022904 12 242 9.7 9.7 0.00 0.00 0.00 49 1006.2
20260504022403 13 238 11.3 14.5 0.00 0.00 0.00 48 1006.0
20260504021904 13 236 9.7 14.5 0.00 0.00 0.00 48 1005.9
20260504021403 13 242 8.0 9.7 0.00 0.00 0.00 48 1005.9
20260504020903 13 242 8.0 9.7 0.00 0.00 0.00 48 1006.0
20260504020403 13 242 9.7 12.9 0.00 0.00 0.00 48 1006.1
20260504015903 13 234 9.7 11.3 0.00 0.00 0.00 47 1006.1
20260504015404 13 236 8.0 9.7 0.00 0.00 0.00 45 1006.2
20260504013904 16 236 8.0 9.7 0.00 0.00 0.00 39 1006.3
20260504013404 17 246 9.7 11.3 0.00 0.00 0.00 37 1006.3
20260504012904 18 235 9.7 12.9 0.00 0.00 0.00 35 1006.3
20260504012403 18 258 9.7 14.5 0.00 0.00 0.00 33 1006.3
20260504011903 18 257 8.0 12.9 0.00 0.00 0.00 33 1006.3
20260504011403 19 267 11.3 14.5 0.00 0.00 0.00 33 1006.3
20260504010903 19 266 11.3 19.3 0.00 0.00 0.00 32 1006.3
20260504010404 20 265 11.3 19.3 0.00 0.00 0.00 32 1006.2
20260504005904 20 266 12.9 19.3 0.00 0.00 0.00 31 1006.2
20260504005403 20 262 16.1 20.9 0.00 0.00 0.00 32 1006.2
20260504004903 20 265 16.1 24.1 0.00 0.00 0.00 32 1006.3
20260504004404 21 270 12.9 19.3 0.00 0.00 0.00 32 1006.3
20260504003404 21 272 11.3 20.9 0.00 0.00 0.00 32 1006.2
20260504002903 21 280 19.3 27.4 0.00 0.00 0.00 31 1006.2
20260504002403 21 280 17.7 24.1 0.00 0.00 0.00 31 1006.3
20260504001903 21 261 14.5 25.7 0.00 0.00 0.00 31 1006.3
20260504001403 21 266 16.1 20.9 0.00 0.00 0.00 30 1006.3
20260504000904 21 269 20.9 32.2 0.00 0.00 0.00 29 1006.3
20260504000404 21 262 14.5 22.5 0.00 0.00 0.00 30 1006.4
20260503235903 21 273 19.3 24.1 0.00 0.00 0.00 31 1006.4
20260503235404 21 289 19.3 24.1 0.00 0.00 0.00 29 1006.4
20260503234903 21 301 19.3 25.7 0.00 0.00 0.00 29 1006.5
20260503234404 21 283 16.1 27.4 0.00 0.00 0.00 28 1006.4
20260503233903 21 280 19.3 25.7 0.00 0.00 0.00 27 1006.5
20260503233403 21 303 22.5 27.4 0.00 0.00 0.00 26 1006.6
20260503232903 22 294 27.4 33.8 0.00 0.00 0.00 26 1006.6
20260503231903 21 277 20.9 27.4 0.00 0.00 0.00 27 1006.6
20260503231403 22 296 22.5 29.0 0.00 0.00 0.00 29 1006.7
20260503230403 22 299 25.7 32.2 0.00 0.00 0.00 29 1006.8
20260503225904 22 293 20.9 32.2 0.00 0.00 0.00 28 1006.8
20260503225403 22 311 25.7 32.2 0.00 0.00 0.00 28 1006.9
20260503224904 22 309 20.9 32.2 0.00 0.00 0.00 29 1006.9
20260503224404 22 296 20.9 32.2 0.00 0.00 0.00 28 1006.9
20260503223903 22 310 27.4 35.4 0.00 0.00 0.00 29 1007.0
20260503223403 22 329 19.3 25.7 0.00 0.00 0.00 30 1006.9
20260503222903 22 302 20.9 29.0 0.00 0.00 0.00 31 1007.0
20260503222403 22 303 22.5 27.4 0.00 0.00 0.00 30 1007.0
20260503221903 22 261 20.9 32.2 0.00 0.00 0.00 30 1006.9
20260503221403 22 282 22.5 32.2 0.00 0.00 0.00 30 1007.0
20260503220903 21 288 12.9 25.7 0.00 0.00 0.00 31 1007.1
20260503220404 21 289 14.5 25.7 0.00 0.00 0.00 31 1007.2
20260503215403 21 314 8.0 29.0 0.00 0.00 0.00 32 1007.3